STARLINK-1434 (45712 NORAD) Tracking and Keplerian Element Data

This shows tracking and keplerian element data for the satellite.

Feedback or suggestion? Click here.




ElementValue
Catalog45712
NameSTARLINK-1434
Epoch Orbit555
Epoch Day185.58334491
Epoch Year2020
RAAN23.0532
Inclination53.0007
Eccentricity0.0008092
Argument of Perigee297.2556
Mean Anonmoly254.0426
Mean Motion15.61607184
Decay Rate0.0029024
L11 45712U 20035BH 20185.58334491 .00290240 00000-0 31996-2 0 9999
L22 45712 53.0007 23.0532 0008092 297.2556 254.0426 15.61607184 5553

Live tracking and technical data element details for STARLINK-1434 (NORAD 45712). STARLINK-1434 can be tracked NOW for your location showing map with azimuth and elevation plus other details from your city location.

Track the satellite on the map from your city or location and see movement details for azimuth, elevation, latitude, longitude, range, height, and movement on the map or in text.







IsCatalogInMostPopularTable: catalog: 45712, numindb: 4
Update: records affected: 1



GetName: 45712 STARLINK-1434

Hit Count: updated at: Sat, 04 Jul 2020 02:28:57 GMT